Вернуться в каталог

STARLINK-5147

АктивенСвязьVLEO
NORAD 53985·PAYLOAD·🇺🇸 United States

Запущен Oct 5, 2022 с Vandenberg Space Force Base

Loading…

Ближайшие Пролёты (ближайшие 24 часа)

TLE

СвежийSource: CelesTrak SupGP

Эпоха: Sep 15, 2026, 02:43 UTC

1 53985C 22125X   26258.11368056 -.00024414  00000+0 -15311-2 0  2582
2 53985  53.1571  83.3657 0001616  92.2332 346.4413 15.08845083    19

Отслеживайте STARLINK-5147 в реальном времени с AllMySat

Download on the App Store